[[{"header":{"parameterUnit":"m.s-1","parameterCategory":1,"la1":30.2991,"la2":30.254,"lo1":-89.0895,"lo2":-89.0444,"dy":0.0017,"dx":0.0017,"nx":28,"ny":28,"refTime":"2023-10-30T03:00:00:Z","depth":0,"parameterNumber":2,"parameterNumberName":"U-component_of_WINDS"},"data":[0,0,0,0,0,0,0,0,0,0,0,0,0,0,0,0,0,0,0,0,0,0,0,0,0,0,0,0,0,0,0,0,0,0,0,0,0,0,0,0,0,0,0,0,0,0,0,0,0,0,0,0,0,0,0,0,0,0,0.7385,0.7385,0,0.7376,0.7376,0.7376,0.7376,0.7376,0.7376,0.7376,0.7366,0.7366,0.7366,0,0,0,0,0,0,0,0,0,0,0,0,0,0.7403,0.7402,0.7385,0.7385,0.7385,0.7376,0.7376,0.7376,0.7376,0.7376,0.7376,0.7376,0.7367,0.7366,0.7366,0,0,0,0,0,0,0,0,0,0,0,0,0,0.7394,0.7402,0.7385,0.7384,0.7384,0.7376,0.7376,0.7376,0.7376,0.7376,0.7376,0.7376,0.7367,0.7366,0.7366,0.7359,0,0,0.7364,0.7364,0,0,0,0,0,0,0,0,0.7395,0.7394,0.7384,0.7384,0.7384,0.7377,0.7379,0.737,0.7376,0.7379,0.7376,0.7376,0.737,0.7369,0.7367,0.7359,0.7358,0.7364,0.7364,0.7363,0.7363,0,0,0,0,0,0,0,0.7395,0.7394,0.7382,0.7384,0.7384,0.7384,0.7383,0.7377,0.7373,0.7378,0.7378,0.7377,0.737,0.7368,0.7367,0.7358,0.7364,0.7363,0.7363,0.7363,0.7345,0.7345,0,0,0,0,0,0,0.7396,0.7395,0.7382,0.7381,0.739,0.7383,0.7382,0.7379,0.7374,0.7373,0.7377,0.7377,0.7368,0.7367,0.7366,0.7359,0.7363,0.7363,0.7363,0.7345,0.7345,0.7345,0,0,0,0,0,0,0.7397,0.7395,0.7382,0.7388,0.7386,0.7383,0.7379,0.7379,0.7377,0.7373,0.7372,0.7376,0.7368,0.7367,0.7361,0.7359,0.7363,0.7362,0.7346,0.7345,0.7345,0.7344,0,0,0,0,0,0,0.7397,0.7395,0.7392,0.7388,0.7386,0.7377,0.7379,0.7379,0.7376,0.7376,0.7371,0.737,0.7369,0.7362,0.7361,0.7358,0.7362,0.7346,0.7346,0.7345,0.7344,0.7344,0.7343,0,0,0,0,0,0.7398,0.7392,0.7392,0.7391,0.7383,0.7377,0.7376,0.7374,0.7376,0.7373,0.7371,0.737,0.7359,0.7361,0.736,0.7357,0.7346,0.7346,0.7345,0.7344,0.7344,0.7343,0,0,0,0,0,0,0.7396,0.7391,0.7392,0.7384,0.7381,0.7377,0.7373,0.7373,0.7369,0.7369,0.7368,0.7366,0.7361,0.7358,0.7361,0.7351,0.7353,0.7352,0.7353,0.7352,0.7352,0.7352,0.7361,0,0,0,0,0,0.7394,0.739,0.7387,0.7381,0.7379,0.7377,0.7374,0.7373,0.737,0.7368,0.7365,0.7362,0.7358,0.7355,0.7351,0.7344,0.7343,0.7342,0.7341,0.7341,0.734,0.7338,0.7337,0.7344,0.7344,0.7344,0,0,0.7391,0.7389,0.7386,0.738,0.7377,0.7373,0.7375,0.737,0.7367,0.7367,0.7361,0.736,0.7356,0.735,0.7347,0.7348,0.7338,0.734,0.734,0.734,0.7337,0.7336,0.7336,0.7344,0.7344,0.7344,0,0,0.7384,0.7381,0.7376,0.7374,0.7371,0.7369,0.7368,0.7364,0.7363,0.7358,0.7358,0.7355,0.7347,0.7345,0.7343,0.7337,0.7336,0.7335,0.7333,0.733,0.733,0.7329,0.7327,0.7327,0.7335,0.7335,0.7335,0,0.7381,0.7374,0.7374,0.7369,0.7367,0.7368,0.7363,0.7361,0.7356,0.7354,0.7356,0.7348,0.7345,0.7339,0.7338,0.7336,0.7335,0.7335,0.733,0.7329,0.7329,0.7327,0.7326,0.7335,0.7335,0.7335,0.7335,0,0.7371,0.7367,0.7363,0.7359,0.7357,0.7352,0.7351,0.7349,0.7349,0.7348,0.7343,0.734,0.7336,0.7334,0.7334,0.7329,0.7329,0.733,0.7332,0.7328,0.7326,0.7326,0.7335,0.7335,0.7335,0.7335,0,0,0.736,0.7357,0.7356,0.7355,0.7352,0.7348,0.7345,0.7341,0.7339,0.7337,0.7333,0.7328,0.733,0.7327,0.7327,0.7325,0.7321,0.7326,0.7326,0.7325,0.7316,0.7315,0.7314,0.7321,0.7321,0.7321,0.7316,0,0.7353,0.7345,0.7346,0.7339,0.7336,0.7337,0.7334,0.7332,0.7331,0.7328,0.7328,0.7324,0.7326,0.7325,0.7323,0.7322,0.7319,0.7322,0.7318,0.7318,0.7319,0.7313,0.7312,0.7307,0.7315,0.7315,0.7315,0,0.7342,0.734,0.7333,0.7332,0.733,0.7327,0.7325,0.7322,0.7321,0.732,0.7319,0.7319,0.7316,0.7318,0.7314,0.7316,0.7315,0.7315,0.7314,0.7313,0.7316,0.7312,0.7305,0.7305,0.7314,0.7314,0.7314,0,0.7335,0.733,0.7326,0.7325,0.7323,0.7321,0.7321,0.7319,0.7318,0.7316,0.7315,0.7312,0.7311,0.7309,0.731,0.7311,0.7306,0.7308,0.7305,0.7305,0.7303,0.7303,0.7296,0.7303,0.7303,0.7303,0.7303,0,0.7326,0.7322,0.7323,0.732,0.7316,0.7317,0.7313,0.7312,0.7312,0.7309,0.731,0.7308,0.7309,0.7307,0.7307,0.7304,0.7303,0.7303,0.7303,0.7303,0.7303,0.7301,0.7302,0.7303,0.7303,0.7303,0.7303,0,0.7317,0.7318,0.7313,0.7313,0.7312,0.7309,0.7309,0.7307,0.7307,0.7304,0.7304,0.7304,0.7302,0.7302,0.7299,0.73,0.7296,0.7296,0.7296,0.7296,0.7294,0.7294,0.7286,0.7285,0.7292,0.7292,0.7292,0,0.7311,0.7308,0.7308,0.7306,0.7306,0.7303,0.7302,0.7303,0.7302,0.7301,0.7299,0.7297,0.7296,0.7293,0.7293,0.7291,0.7292,0.7289,0.7291,0.7291,0.7292,0.7292,0.7292,0.7288,0.7288,0.7288,0.7288,0,0.73,0.7301,0.7299,0.7298,0.7297,0.7296,0.7295,0.7294,0.7295,0.7294,0.7292,0.7291,0.7289,0.7287,0.7286,0.7286,0.7287,0.7287,0.7287,0.7286,0.7286,0.7286,0.7295,0.7287,0.7287,0.7287,0.7287,0.7287,0.7292,0.729,0.729,0.7288,0.7288,0.7288,0.7286,0.7287,0.7285,0.7284,0.7285,0.7283,0.7283,0.7282,0.7282,0.7281,0.7282,0.7281,0.728,0.728,0.728,0.7287,0.728,0.728,0.728,0.728,0.728,0,0.7282,0.7282,0.7281,0.728,0.7279,0.7281,0.7281,0.728,0.7278,0.7278,0.7277,0.7276,0.7275,0.7275,0.7275,0.7274,0.7275,0.7274,0.7273,0.7273,0.7279,0.7279,0.7273,0.7273,0.7273,0.7273,0.7273,0.7273,0.7276,0.7273,0.7274,0.7271,0.7272,0.727,0.727,0.727,0.727,0.7268,0.7268,0.7268,0.7269,0.7269,0.7268,0.7269,0.7268,0.7267,0.7268,0.7272,0.7273,0.7274,0.7274,0.7267,0.7267,0.7263,0.7263,0.7262]},{"header":{"parameterUnit":"m.s-1","parameterCategory":1,"la1":30.2991,"la2":30.254,"lo1":-89.0895,"lo2":-89.0444,"dy":0.0017,"dx":0.0017,"nx":28,"ny":28,"refTime":"2023-10-30T03:00:00:Z","depth":0,"parameterNumber":3,"parameterNumberName":"V-component_of_WINDS"},"data":[0,0,0,0,0,0,0,0,0,0,0,0,0,0,0,0,0,0,0,0,0,0,0,0,0,0,0,0,0,0,0,0,0,0,0,0,0,0,0,0,0,0,0,0,0,0,0,0,0,0,0,0,0,0,0,0,0,0,-9.3842,-9.3844,0,-9.4007,-9.4009,-9.401,-9.3948,-9.3944,-9.394,-9.3936,-9.4096,-9.4104,-9.4112,0,0,0,0,0,0,0,0,0,0,0,0,0,-9.3466,-9.3473,-9.3842,-9.3844,-9.3846,-9.4006,-9.4009,-9.4011,-9.3948,-9.3944,-9.3939,-9.3935,-9.4094,-9.4103,-9.4112,0,0,0,0,0,0,0,0,0,0,0,0,0,-9.3629,-9.3475,-9.3841,-9.3834,-9.3835,-9.4006,-9.4009,-9.4011,-9.3949,-9.3943,-9.3938,-9.3933,-9.4091,-9.4102,-9.4114,-9.4299,0,0,-9.4149,-9.4154,0,0,0,0,0,0,0,0,-9.362,-9.3643,-9.3833,-9.3835,-9.3836,-9.3951,-9.3935,-9.4107,-9.3951,-9.3906,-9.3936,-9.393,-9.4052,-9.4067,-9.411,-9.4306,-9.4313,-9.415,-9.4157,-9.4162,-9.4166,0,0,0,0,0,0,0,-9.3609,-9.3636,-9.3907,-9.3836,-9.3838,-9.382,-9.3837,-9.3967,-9.4008,-9.3909,-9.3905,-9.3926,-9.4052,-9.4098,-9.4113,-9.4315,-9.415,-9.416,-9.4168,-9.4172,-9.4672,-9.4678,0,0,0,0,0,0,-9.3598,-9.3627,-9.3901,-9.3912,-9.3712,-9.3832,-9.3851,-9.392,-9.4007,-9.4015,-9.393,-9.3922,-9.4081,-9.4099,-9.4118,-9.4341,-9.4162,-9.4173,-9.418,-9.4666,-9.4674,-9.4681,0,0,0,0,0,0,-9.359,-9.3623,-9.3895,-9.3768,-9.3802,-9.3844,-9.3922,-9.3926,-9.3973,-9.4023,-9.4029,-9.3971,-9.4078,-9.4102,-9.4255,-9.4346,-9.4178,-9.4189,-9.4659,-9.4669,-9.4677,-9.4789,0,0,0,0,0,0,-9.358,-9.3621,-9.3693,-9.377,-9.3809,-9.4032,-9.3928,-9.3933,-9.3994,-9.3985,-9.4063,-9.407,-9.4075,-9.4238,-9.4267,-9.4359,-9.4198,-9.4651,-9.4663,-9.4674,-9.4777,-9.4801,-9.4821,0,0,0,0,0,-9.3566,-9.3716,-9.3697,-9.3731,-9.39,-9.4037,-9.4058,-9.4064,-9.4002,-9.4074,-9.4106,-9.4068,-9.4332,-9.4254,-9.4286,-9.4383,-9.4645,-9.466,-9.4673,-9.4767,-9.4796,-9.482,0,0,0,0,0,0,-9.3644,-9.3726,-9.3706,-9.3885,-9.3955,-9.4026,-9.4117,-9.4094,-9.418,-9.4168,-9.4168,-9.4186,-9.4344,-9.4378,-9.4291,-9.4567,-9.4479,-9.45,-9.4539,-9.4567,-9.4588,-9.4577,-9.4208,0,0,0,0,0,-9.3683,-9.379,-9.3854,-9.4005,-9.4042,-9.4074,-9.4133,-9.4132,-9.4203,-9.4231,-9.4275,-9.4343,-9.4441,-9.4506,-9.4599,-9.4782,-9.4797,-9.4864,-9.4886,-9.4904,-9.4922,-9.5022,-9.5052,-9.4727,-9.4727,-9.4727,0,0,-9.3762,-9.382,-9.3887,-9.4023,-9.4077,-9.4185,-9.4099,-9.4217,-9.4297,-9.4248,-9.4397,-9.4431,-9.4507,-9.4677,-9.4753,-9.471,-9.5015,-9.4922,-9.4936,-9.4944,-9.5039,-9.507,-9.5097,-9.4737,-9.4735,-9.4734,0,0,-9.3964,-9.4018,-9.4152,-9.4208,-9.4293,-9.4313,-9.4345,-9.4421,-9.4443,-9.4593,-9.4559,-9.4652,-9.4821,-9.4878,-9.4928,-9.5153,-9.5121,-9.5183,-9.5297,-9.5395,-9.542,-9.5443,-9.5523,-9.5552,-9.5201,-9.5201,-9.5201,0,-9.4051,-9.4216,-9.4222,-9.4345,-9.4405,-9.4369,-9.4503,-9.4557,-9.4666,-9.4708,-9.4658,-9.4872,-9.492,-9.5102,-9.5158,-9.52,-9.5235,-9.5174,-9.5417,-9.5439,-9.5461,-9.5537,-9.5567,-9.5208,-9.5207,-9.5206,-9.5206,0,-9.432,-9.4435,-9.4532,-9.4643,-9.4714,-9.4841,-9.4864,-9.4935,-9.4928,-9.4953,-9.5106,-9.5163,-9.5268,-9.5311,-9.5303,-9.5492,-9.5463,-9.5416,-9.5327,-9.5499,-9.5571,-9.56,-9.5218,-9.5216,-9.5213,-9.5212,0,0,-9.4573,-9.4688,-9.4723,-9.4774,-9.4865,-9.4952,-9.5077,-9.5183,-9.5244,-9.5321,-9.5425,-9.557,-9.5528,-9.5585,-9.5583,-9.5669,-9.5844,-9.561,-9.5612,-9.5652,-9.6056,-9.6092,-9.6126,-9.5823,-9.5829,-9.5833,-9.605,0,-9.4782,-9.5006,-9.5016,-9.5218,-9.5324,-9.5293,-9.5402,-9.5468,-9.5495,-9.5587,-9.5615,-9.5719,-9.5654,-9.5689,-9.5772,-9.5805,-9.5925,-9.5789,-9.5918,-9.5923,-9.5901,-9.6163,-9.6201,-9.6403,-9.6078,-9.6083,-9.6086,0,-9.5055,-9.5145,-9.5359,-9.5437,-9.5482,-9.558,-9.5679,-9.5767,-9.5842,-9.5855,-9.5921,-9.5907,-9.6033,-9.5941,-9.6114,-9.6022,-9.6075,-9.6099,-9.6107,-9.6119,-9.6015,-9.6183,-9.6468,-9.6498,-9.6131,-9.6127,-9.6124,0,-9.522,-9.5393,-9.5544,-9.5588,-9.5682,-9.5752,-9.5794,-9.5863,-9.5927,-9.6012,-9.6053,-9.615,-9.6203,-9.6278,-9.629,-9.6221,-9.6464,-9.6372,-9.6477,-9.6477,-9.6529,-9.6526,-9.6827,-9.6564,-9.6563,-9.6562,-9.6562,0,-9.5452,-9.5585,-9.562,-9.5713,-9.586,-9.5869,-9.6014,-9.605,-9.6112,-9.621,-9.6187,-9.6278,-9.6289,-9.6383,-9.6393,-9.6535,-9.6559,-9.6572,-9.6573,-9.6575,-9.6573,-9.6609,-9.6595,-9.657,-9.6569,-9.6567,-9.6566,0,-9.566,-9.569,-9.5853,-9.593,-9.5952,-9.6057,-9.6122,-9.621,-9.6235,-9.6359,-9.6389,-9.6427,-9.6537,-9.6557,-9.6685,-9.6692,-9.6862,-9.6848,-9.6838,-9.6836,-9.6941,-9.6931,-9.7276,-9.7321,-9.7028,-9.7031,-9.7033,0,-9.5807,-9.5909,-9.5998,-9.6064,-9.611,-9.6216,-9.6282,-9.6294,-9.6363,-9.6456,-9.6533,-9.6641,-9.6728,-9.6905,-9.6942,-9.704,-9.7029,-9.7143,-9.7043,-9.7042,-9.7031,-9.7025,-9.7036,-9.7162,-9.7165,-9.7168,-9.717,0,-9.6064,-9.6074,-9.6171,-9.6275,-9.6355,-9.6436,-9.6512,-9.6567,-9.6589,-9.6667,-9.6781,-9.6849,-9.6982,-9.709,-9.7188,-9.7227,-9.7203,-9.7202,-9.7231,-9.7234,-9.7224,-9.7231,-9.6891,-9.7193,-9.7191,-9.7189,-9.7188,-9.7187,-9.6246,-9.6336,-9.6414,-9.6523,-9.6583,-9.6656,-9.6743,-9.6781,-9.6877,-9.6989,-9.6989,-9.7114,-9.7185,-9.7315,-9.7362,-9.7458,-9.7421,-9.7464,-9.7475,-9.7485,-9.7496,-9.7209,-9.7476,-9.7475,-9.7474,-9.7474,-9.7473,0,-9.6502,-9.6552,-9.6652,-9.6763,-9.6849,-9.6821,-9.6905,-9.6978,-9.7089,-9.716,-9.7247,-9.7378,-9.7483,-9.753,-9.7632,-9.77,-9.7691,-9.7726,-9.7721,-9.7731,-9.7522,-9.7487,-9.7732,-9.7732,-9.7732,-9.7732,-9.7732,-9.7732,-9.6646,-9.6797,-9.6816,-9.6996,-9.7043,-9.7168,-9.7219,-9.7285,-9.7342,-9.749,-9.7579,-9.761,-9.7671,-9.7778,-9.7872,-9.7882,-9.7921,-9.7962,-9.7967,-9.7772,-9.7745,-9.772,-9.7687,-9.797,-9.797,-9.8168,-9.817,-9.8171]}]]